Weather Roundup
Issued by NWS

Home | Current Version | Previous Version | Text Only | Print | Product List | Glossary On
Versions: 1 2 3 4 5 6 7 8 9 10 11 12 13 14 15 16 17 18 19 20 21 22 23 24 25 26 27 28 29 30 31 32 33 34 35 36 37 38 39 40 41 42 43 44 45 46 47 48 49 50
000
NZUS93 KARX 301459
HRRWXR

CURRENT HOURLY OBSERVATIONS ACROSS
MUCH OF THE UPPER MISSISSIPPI VALLEY
NATIONAL WEATHER SERVICE LA CROSSE WI
1000 AM CDT MON MAY 30 2016


...SOUTHEAST MINNESOTA...


CITY           SKY/WX    TMP DP  RH WIND       PRES   REMARKS
ROCHESTER      MOSUNNY   74  57  55 SE10      30.04F
ROCHESTER/MAYO FAIR      70  59  69 SE6       30.04F
WINONA         MOSUNNY   70  63  78 CALM      30.04S
AUSTIN         MOSUNNY   72  57  60 S7        30.04S
ALBERT LEA     MOSUNNY   72  55  56 S10       30.04R
DODGE CENTER   MOSUNNY   73  55  53 S10       30.03S
PRESTON        SUNNY     73  53  49 S8        30.06F
OWATONNA       MOSUNNY   72  55  56 S9        30.03R
FARIBAULT      MOSUNNY   72  57  60 SE3       30.02F
$$

...ELSEWHERE IN MINNESOTA...


CITY           SKY/WX    TMP DP  RH WIND       PRES   REMARKS
MINNEAPOLIS    PTSUNNY   74  56  53 SW6       30.00F
INTNL FALLS    SUNNY     67  53  61 W6        29.95S
DULUTH         SUNNY     72  50  45 W14       29.97S
RED WING         N/A     72  61  68 SE3       30.01F
REDWOOD FALLS  CLOUDY    71  56  58 S8        29.99R
MANKATO        CLOUDY    72  55  56 S6        30.01R
WORTHINGTON    SUNNY     70  57  63 S9        30.02S
FAIRMONT       SUNNY     73  54  49 S7        30.02F
$$

...SOUTHWEST WISCONSIN...


CITY           SKY/WX    TMP DP  RH WIND       PRES   REMARKS
LA CROSSE      MOSUNNY   70  61  73 S6        30.04R
PRAIRIE DU CHI MOSUNNY   71  60  69 CALM      30.06S
BOSCOBEL       SUNNY     76  60  57 CALM      30.06R
LONE ROCK      NOT AVBL
PLATTEVILLE    SUNNY     74  60  63 N6        30.07R
FORT MC COY    CLOUDY    69  58  68 CALM      30.05S
MAUSTON-NEW LI CLOUDY    71  59  66 NW3       30.03S
VIROQUA        FAIR      73  57  58 W3        30.07R
WIS DELLS      SUNNY     72  55  55 N5        30.05R
$$

...ELSEWHERE IN WISCONSIN...


CITY           SKY/WX    TMP DP  RH WIND       PRES   REMARKS
MILWAUKEE      MOSUNNY   77  57  50 W8        30.01F
MADISON        MOSUNNY   74  61  63 N6        30.04R
GREEN BAY      SUNNY     74  57  55 NW6       30.01R
EAU CLAIRE     NOT AVBL
BLACK RVR FLS  FAIR      71  55  55 CALM      30.03S
MEDFORD        SUNNY     68  54  60 W6        30.03S
WAUSAU         SUNNY     73  52  47 NW7       30.01S
WIS RAPIDS     SUNNY     75  49  39 N7        30.04S
MARSHFIELD     SUNNY     73  50  44 NW8       30.03R
RICE LAKE      SUNNY     69  57  64 SW3       30.04R
$$

...NORTHEAST IOWA...


CITY           SKY/WX    TMP DP  RH WIND       PRES   REMARKS
WATERLOO       CLOUDY    64  58  80 S3        30.08R
DUBUQUE        SUNNY     76  58  53 VRB6      30.06S
DECORAH        MOSUNNY   72  63  73 CALM      30.06F
MASON CITY     MOSUNNY   69  58  67 S10       30.06S
CHARLES CITY   CLOUDY    68  59  73 SE9       30.06F
OELWEIN        CLOUDY    70  59  68 CALM      30.08F
$$

...ELSEWHERE IN IOWA...


CITY           SKY/WX    TMP DP  RH WIND       PRES   REMARKS
DES MOINES     MOSUNNY   78  63  59 SW5       30.02S
IOWA CITY      PTSUNNY   73  61  65 S6        30.08R
FORT DODGE     SUNNY     73  57  56 SE10      30.03F
MARSHALLTOWN   MOSUNNY   73  58  59 NE14      30.05S
CEDAR RAPIDS   PTSUNNY   70  62  76 CALM      30.06R
$$

...NORTHERN ILLINOIS...


CITY           SKY/WX    TMP DP  RH WIND       PRES   REMARKS
CHICAGO-OHARE  MOSUNNY   77  59  53 SW6       30.03S
CHICAGO-MIDWAY MOSUNNY   79  59  50 VRB5      30.03S
MOLINE         CLOUDY    74  64  71 CALM      30.04F
ROCKFORD       MOSUNNY   78  62  57 W3        30.06S
PEORIA         SUNNY     79  64  60 VRB6      30.06F
$$

NOTE: "FAIR" INDICATES FEW OR NO CLOUDS BELOW 12,000 FEET WITH NO
SIGNIFICANT WEATHER AND/OR OBSTRUCTIONS TO VISIBILITY. WIND
SPEEDS ARE IN MILES-PER-HOUR.




USA.gov is the U.S. government's official web portal to all federal, state and local government web resources and services.